Location: Newark
(25.4297°S, 49.2719°W)
Time: 07:44:32
(UTC+00:00)

Vanguard 1 Rocket - Pass Details

Date: 23 November 2019
Orbit: 650 x 4226 km, 34.3° (Epoch: 12 December)

Event Time Altitude Azimuth Distance (km) Brightness Sun altitude
Rises 01:11:56 0° 249° (WSW) 8,025 12.9 -36.9°
Reaches altitude 10° 01:19:13 10° 258° (WSW) 6,511 12.1 -37.8°
Maximum altitude 01:33:39 27° 307° (NW) 3,847 10.4 -39.4°
Enters shadow 01:34:59 27° 316° (NW) 3,723 10.2 -39.5°
Drops below altitude 10° 01:42:41 10° 1° (N) 3,965 - -40.3°
Sets 01:45:52 0° 14° (NNE) 4,528 - -40.6°
